Dewpoint
38 38 39 37 33 27 45 53 50 42 49 53 54 54 56 55 55 59 59 59 63 61 60 60 59 59 59 59 60 60 60 60 60 61 61 61 62 62 62 62 62 63 62 64 65 66 66 66 67 68 69 69 70 71 72 72 72 73 72 73 72 73 73 73 72 72 72 71 72 71 69 70 70 71 72 72 72 72 72 74 74 75 74 76 76 76
38 41 37 32 27 25 39 53 44 51 52 52 52 51 53 54 54 58 59 61 62 60 59 60 59 58 59 60 60 60 60 59 59 60 61 61 61 62 62 63 63 63 63 63 64 65 66 66 67 68 69 70 70 71 72 72 72 73 73 73 73 72 73 73 72 72 72 72 71 71 71 70 70 71 71 71 72 71 72 75 76 75 75 76 76 77
38 39 38 33 26 25 25 42 32 32 50 52 51 51 53 55 58 60 60 60 61 60 59 59 59 58 60 60 61 60 59 59 60 61 61 61 61 62 62 62 63 62 62 62 62 64 65 65 66 67 68 69 69 71 71 72 73 73 73 74 74 73 73 72 73 73 73 73 73 72 72 70 70 72 73 71 72 73 72 73 75 76 76 77 77 77
37 36 33 28 26 23 21 26 27 35 39 41 42 45 48 57 54 54 58 59 59 59 59 58 58 60 61 61 61 64 60 60 61 62 62 62 61 61 61 61 61 61 62 61 61 62 63 65 66 67 68 69 69 71 71 71 72 72 74 75 75 74 74 74 74 74 74 74 74 73 73 73 72 72 73 74 73 73 73 72 74 75 76 77 76 75
32 24 26 26 25 23 22 19 27 26 31 47 42 41 49 55 57 55 57 59 59 59 59 58 58 57 60 59 60 63 64 62 62 61 60 61 62 62 62 61 61 60 61 61 60 61 63 64 65 67 68 68 69 70 71 71 71 71 73 74 75 75 75 75 75 75 74 74 73 73 73 73 73 73 73 72 72 73 73 72 73 74 75 76 76 76
29 26 25 24 23 23 23 21 19 21 22 35 50 47 49 54 54 57 58 56 56 56 58 56 52 52 57 59 57 60 62 61 61 60 59 60 61 61 61 60 60 60 61 61 61 62 63 64 65 67 68 68 68 69 70 70 71 72 73 74 75 75 75 74 75 75 74 73 73 72 72 71 71 71 71 70 70 71 71 70 72 74 74 75 76 76
30 26 25 24 24 23 23 22 21 20 20 20 24 50 54 54 56 56 56 54 53 52 56 58 52 50 57 56 58 60 60 59 61 60 58 59 60 60 60 60 59 59 59 60 60 61 62 64 65 67 67 67 68 69 70 71 71 72 73 74 75 75 75 75 75 74 74 73 73 72 71 71 71 71 71 73 71 71 72 73 73 74 75 76 75 75
26 25 24 24 24 23 22 23 22 20 20 20 23 50 55 55 55 55 56 53 54 57 57 57 56 52 51 56 60 59 59 59 59 59 60 60 60 58 60 59 60 59 58 59 60 61 62 64 65 65 66 67 67 68 70 70 71 73 74 74 74 75 75 75 75 74 74 73 73 72 72 72 71 70 72 73 74 73 74 74 74 74 74 76 75 75
25 25 24 24 24 22 22 22 23 19 20 25 42 52 55 55 55 55 53 53 54 53 53 54 56 52 51 57 60 60 57 57 58 59 59 61 60 59 59 58 59 59 59 58 59 60 62 63 64 65 66 66 67 68 69 70 71 72 73 74 74 74 75 74 75 74 74 74 73 72 72 72 72 72 73 73 74 74 74 74 75 75 75 75 76 76
23 26 24 24 23 22 23 22 20 19 21 49 54 56 56 56 54 53 54 54 54 51 49 53 54 49 49 56 57 60 57 56 56 58 59 60 60 59 58 58 58 59 60 59 59 60 61 63 64 64 66 66 67 68 69 70 70 71 73 73 74 74 74 74 75 75 74 74 74 73 73 72 73 73 74 74 74 75 75 74 75 75 75 74 75 76
23 30 28 24 23 23 24 23 19 19 46 55 54 53 52 50 51 52 52 53 52 47 47 52 53 49 48 54 57 56 56 59 58 58 59 61 61 59 58 58 58 58 58 59 59 60 62 62 64 64 65 67 67 68 69 69 70 70 71 73 73 74 74 75 75 75 74 74 74 73 74 74 74 74 74 74 75 75 75 74 74 74 75 75 74 74
21 25 28 22 26 22 23 19 17 38 53 51 50 50 49 49 50 50 50 53 49 44 43 50 53 51 45 51 54 56 59 60 61 58 58 60 60 59 59 57 57 57 58 58 59 61 61 63 64 65 65 66 67 68 68 68 69 70 71 72 73 74 74 74 74 74 74 73 74 74 74 74 75 75 73 74 74 75 75 75 74 75 75 75 74 75
22 22 23 23 40 20 21 19 30 46 49 43 48 45 39 46 49 45 49 45 45 42 43 51 53 50 48 50 53 56 57 60 62 62 59 59 60 60 59 58 58 58 57 58 59 62 61 63 64 64 66 68 68 68 69 68 68 70 71 72 72 73 74 74 74 74 74 74 74 74 74 75 75 75 75 75 74 75 75 75 74 75 74 75 74 74
17 21 21 21 27 27 20 17 33 44 43 43 41 40 33 41 41 41 42 44 43 43 41 50 53 48 49 51 56 55 56 59 63 64 62 60 61 61 61 60 59 59 59 58 58 61 61 63 63 64 66 67 67 67 68 68 69 70 70 72 72 73 74 74 74 74 74 74 75 75 74 75 75 75 75 74 73 74 75 76 75 74 73 75 74 74
15 15 17 21 18 26 20 18 32 41 44 42 44 32 30 38 37 38 39 37 37 44 48 52 48 47 45 51 56 57 58 58 61 65 66 64 63 63 63 64 63 61 61 61 59 59 60 62 63 64 65 66 67 67 67 68 70 71 71 72 73 73 73 74 74 74 74 74 74 75 74 75 75 74 74 74 74 75 75 74 74 76 74 73 74 74
16 18 18 21 23 23 19 20 32 41 41 46 45 39 35 33 42 31 40 40 43 44 46 50 47 52 50 57 59 61 59 58 62 64 67 66 66 65 64 64 63 61 59 60 59 60 61 62 64 64 64 65 66 68 67 68 70 70 71 72 72 73 73 73 74 74 74 74 74 75 75 75 75 75 74 75 76 76 75 76 75 76 77 75 75 76
21 14 19 22 23 22 20 21 32 40 33 42 45 35 34 45 39 42 44 46 46 43 45 50 48 52 53 54 58 60 58 58 62 63 65 65 65 64 64 64 64 63 60 59 59 60 62 62 63 64 65 65 65 66 67 69 70 70 71 71 72 73 72 72 73 73 73 74 74 75 74 74 74 74 73 72 73 72 74 76 75 75 74 76 77 75
17 16 19 19 20 23 23 20 37 37 43 41 39 39 38 39 38 40 38 43 41 37 44 48 46 48 47 49 59 59 57 59 61 61 64 65 66 64 64 64 65 63 62 61 61 62 63 63 64 64 64 64 65 65 66 70 69 71 71 71 71 72 72 72 72 71 72 73 73 74 74 75 74 72 72 72 72 73 74 75 76 75 75 74 74 75
18 15 16 18 21 23 26 23 37 33 37 38 34 41 31 37 35 39 42 38 37 36 41 46 46 47 49 49 57 56 57 58 60 61 62 63 65 64 64 65 66 66 66 62 60 61 61 62 63 65 65 66 67 67 67 68 68 69 70 70 69 70 70 71 70 71 72 72 71 72 73 73 74 73 73 73 74 74 73 72 73 73 74 74 75 76
22 15 17 21 20 20 23 23 28 29 36 37 44 39 27 37 38 37 39 42 39 38 39 43 46 45 50 49 55 56 58 59 59 60 60 61 63 64 64 65 65 66 67 65 64 62 62 62 62 64 64 66 67 67 66 66 68 68 69 71 71 71 71 71 71 72 72 71 71 71 73 75 75 76 75 75 74 73 73 73 72 73 72 74 74 74
20 29 18 17 19 21 23 24 24 28 32 35 39 37 31 28 28 36 38 40 36 41 39 40 40 44 51 56 57 57 59 60 60 60 60 62 63 65 65 66 67 67 67 68 66 64 64 64 63 62 65 66 67 67 65 65 68 68 68 69 70 70 70 70 70 72 72 71 71 72 72 72 74 74 74 73 74 74 74 74 74 73 73 75 74 74
24 24 21 24 17 20 22 19 22 27 32 33 35 36 31 29 33 34 34 41 42 37 37 37 34 46 51 56 58 58 59 60 60 60 61 63 63 66 66 67 66 67 68 68 67 65 65 67 66 66 66 66 66 67 66 65 66 69 70 70 71 71 71 71 70 72 73 73 72 71 71 71 72 73 74 73 73 73 73 73 74 75 75 73 74 75
29 32 28 23 17 18 14 16 26 24 21 28 34 35 30 29 35 33 32 38 43 43 43 44 39 48 54 57 58 59 60 60 61 61 61 62 63 63 65 67 67 67 68 68 67 67 68 68 68 67 67 67 67 68 68 69 69 70 71 71 72 72 72 73 72 70 73 73 73 72 71 71 71 72 72 71 71 70 69 71 73 74 74 72 72 74
45 35 32 22 27 18 19 21 20 19 20 30 28 23 26 28 30 32 33 41 40 44 40 40 37 45 53 59 59 60 61 61 62 62 62 62 64 65 66 66 67 67 68 71 71 71 70 69 70 70 69 69 70 70 69 70 71 71 72 72 72 72 72 73 72 73 74 73 73 72 72 72 71 70 70 69 70 70 69 69 71 73 73 72 71 72
33 36 34 21 20 20 17 20 17 19 19 22 24 23 30 30 32 37 44 47 39 43 42 36 32 43 54 58 59 60 60 60 60 62 62 62 64 64 65 66 68 69 69 69 69 70 70 69 69 71 71 71 71 71 71 71 71 72 72 72 72 72 73 72 73 72 72 73 73 74 73 71 71 71 71 70 69 70 70 70 69 71 72 71 71 72
30 31 35 19 19 19 19 20 20 22 20 21 22 30 37 30 39 37 36 44 34 47 46 38 41 52 56 58 59 59 59 60 60 61 62 63 63 63 64 66 67 67 68 68 69 69 69 69 70 70 70 71 71 71 72 72 72 72 73 72 73 73 74 73 75 74 74 74 74 74 75 74 72 71 71 71 70 70 70 70 70 70 71 71 71 72
37 36 36 35 29 23 26 29 25 35 27 18 19 30 30 39 40 42 47 41 30 46 43 46 49 52 53 55 57 58 59 58 59 60 60 61 62 63 64 65 65 66 67 68 68 69 69 69 69 69 70 70 71 71 72 72 73 73 73 73 74 75 75 76 75 75 74 74 74 74 75 74 72 72 71 72 72 71 71 71 70 70 70 71 71 71
41 30 30 35 26 24 23 26 20 23 20 17 17 26 32 39 41 37 32 30 51 43 39 51 52 51 52 54 56 57 58 58 59 60 60 60 61 61 62 63 64 65 66 67 67 68 68 69 70 70 70 70 70 70 71 71 71 71 72 72 72 73 73 73 74 73 74 73 73 73 73 73 74 75 75 74 75 74 72 72 72 72 72 72 72 70
35 25 29 28 21 21 22 21 17 21 23 31 36 35 36 38 41 36 42 43 45 33 29 50 54 52 52 53 55 57 58 59 59 59 60 60 60 61 62 62 63 64 65 65 66 67 68 68 69 69 70 70 70 70 70 70 71 71 72 72 72 72 72 72 73 73 72 73 73 74 74 74 74 75 76 75 75 74 74 73 73 73 73 73 72 70
40 29 33 31 27 21 22 20 19 20 19 21 25 34 41 38 39 43 44 44 45 49 46 51 54 53 53 53 56 57 58 59 59 61 60 60 60 60 61 62 62 62 62 64 64 65 66 67 68 69 69 69 69 69 70 70 69 69 70 70 70 71 71 72 72 72 71 71 71 72 72 73 73 73 73 74 73 74 74 73 73 72 72 73 73 73
31 42 40 31 28 21 22 23 20 18 20 24 24 25 26 41 45 48 48 49 49 50 50 52 53 53 54 55 56 57 58 58 59 59 59 59 59 60 60 61 61 61 61 63 64 65 65 66 67 68 68 68 69 69 68 68 68 69 69 69 69 70 71 72 72 71 70 70 71 72 72 72 72 72 73 73 72 73 73 73 73 74 73 73 73 74
36 43 34 35 26 22 21 21 22 21 16 22 25 29 31 28 44 46 47 49 48 51 52 51 51 51 54 54 56 57 57 57 57 57 58 59 59 60 60 60 60 61 61 62 63 64 65 65 65 65 66 66 67 67 67 67 68 67 67 67 68 69 71 71 71 70 70 70 71 71 71 72 71 71 71 72 71 71 72 73 73 74 74 72 72 74
40 40 45 34 21 22 20 23 25 22 23 22 24 30 30 28 37 44 48 50 50 52 50 48 49 54 55 55 55 56 56 56 56 57 58 60 60 60 60 60 60 60 61 62 63 63 63 64 64 64 64 64 65 65 66 66 65 65 65 65 66 67 68 68 68 68 69 69 70 71 72 71 71 71 72 72 72 72 72 72 72 71 72 73 73 72
43 39 40 40 25 24 21 27 29 23 19 20 30 28 31 29 33 34 44 48 51 50 50 51 54 55 55 54 55 55 55 56 57 58 59 60 60 60 60 60 60 60 61 62 62 62 62 62 63 64 63 63 64 65 65 65 65 64 64 65 66 66 65 66 66 66 66 67 69 69 70 71 71 71 72 72 72 72 72 72 72 72 73 73 73 73
37 39 39 44 27 22 29 30 23 21 19 25 26 30 38 33 37 47 49 50 49 48 49 51 54 55 55 54 55 56 57 56 57 57 58 59 60 59 59 58 60 60 60 61 61 61 61 60 60 62 63 63 63 64 63 62 62 62 64 64 63 63 63 64 64 63 64 66 66 68 68 69 69 69 70 71 71 70 70 71 72 72 72 73 72 73
32 34 39 38 40 29 25 24 22 22 25 27 26 28 35 40 31 45 47 47 47 46 51 52 54 54 55 54 55 56 57 56 56 57 58 59 59 59 58 58 59 61 60 61 61 61 60 60 62 62 62 63 63 63 62 61 61 60 61 61 62 63 62 62 62 62 63 63 63 64 65 67 67 67 68 69 70 70 70 70 71 71 72 72 73 73
38 39 33 32 37 31 25 22 21 35 23 26 25 26 28 30 31 33 41 46 47 48 52 53 54 54 54 54 55 56 56 55 55 55 55 56 57 57 58 58 58 58 59 61 61 61 62 60 61 61 61 60 60 60 59 59 58 58 58 59 61 62 62 62 62 62 62 63 64 64 64 65 65 67 67 68 68 68 69 70 71 71 72 72 72 72
41 32 36 31 30 39 32 21 23 18 19 23 29 31 34 34 35 35 40 45 47 48 53 54 54 54 54 54 55 55 55 55 53 54 54 55 55 55 54 55 57 57 57 58 59 59 60 59 59 60 59 60 59 59 58 57 58 59 59 59 59 59 60 60 61 62 62 61 62 63 64 65 65 66 67 67 67 68 69 70 71 71 72 71 70 69
34 39 40 30 30 30 31 25 23 19 23 33 35 35 36 38 37 36 42 40 47 51 54 54 53 54 54 54 55 55 54 52 52 53 53 53 53 53 53 54 55 56 57 57 57 57 57 58 58 58 58 58 57 58 59 59 59 57 58 58 58 59 60 61 61 62 61 61 62 62 63 64 64 65 67 67 68 69 70 70 70 70 71 71 70 69
34 30 33 27 32 34 30 27 25 32 30 36 40 39 40 39 36 43 31 32 48 49 54 54 54 54 54 54 54 54 53 50 52 54 52 51 51 52 53 54 55 56 56 56 56 58 59 59 58 56 55 55 56 57 58 55 55 57 56 57 58 58 59 61 62 62 62 62 62 62 62 63 64 64 65 66 66 67 68 69 68 68 69 68 68 69
32 28 28 24 27 30 29 26 27 29 40 41 42 42 40 40 41 37 28 37 43 49 53 55 55 54 55 55 54 53 53 55 57 54 51 50 50 51 53 54 55 55 55 55 55 57 55 55 55 55 55 56 56 54 55 55 54 55 56 55 55 55 57 60 61 61 62 61 60 61 62 62 63 62 63 64 64 65 66 66 66 67 67 67 67 66
34 34 33 29 22 23 24 24 24 29 35 43 44 44 45 33 29 28 38 44 44 46 52 54 55 55 55 55 55 55 58 56 53 52 51 50 51 52 52 53 54 54 54 56 56 55 53 52 54 54 54 55 54 54 54 55 56 56 56 54 54 55 56 59 60 60 60 61 61 61 61 62 62 61 60 63 63 63 63 65 66 65 65 66 66 66
31 25 22 21 26 27 27 25 22 22 39 44 45 40 43 37 37 42 44 45 46 48 52 54 55 55 55 53 54 57 56 53 54 53 52 52 52 52 53 54 55 54 53 54 53 53 51 52 51 50 51 51 53 53 53 54 56 56 56 55 56 56 57 57 58 59 59 60 60 62 62 63 63 63 61 60 61 61 61 62 63 65 66 66 65 64
36 28 28 30 29 17 19 20 23 36 42 44 44 38 42 43 44 45 45 43 46 51 53 54 55 54 53 52 53 54 54 53 53 53 52 53 52 53 54 55 54 53 52 51 50 51 51 52 51 49 50 51 55 56 56 56 56 56 56 56 58 57 57 57 57 58 57 58 59 59 60 61 62 63 63 63 62 61 61 61 62 63 64 65 64 63
38 36 37 30 33 34 30 35 42 44 44 44 46 45 45 46 46 46 46 45 46 51 53 54 53 52 52 53 53 54 53 52 52 51 52 55 56 55 55 55 53 52 51 50 49 52 50 49 51 50 51 52 55 56 57 56 56 56 56 58 59 58 56 56 56 56 56 56 57 58 59 60 61 62 62 62 61 59 58 59 59 60 63 63 62 61
39 39 44 40 37 41 42 43 44 45 46 47 46 47 46 46 45 46 44 45 46 47 50 53 51 49 51 53 51 54 53 53 50 50 51 51 52 53 55 55 55 53 53 52 52 52 51 50 50 51 52 54 54 55 57 56 55 56 57 58 59 58 57 56 56 56 56 54 55 55 56 56 56 59 60 60 61 60 59 58 58 59 61 61 61 61
41 41 38 34 40 37 34 44 45 45 46 47 47 48 47 47 46 45 44 45 45 47 50 51 51 51 51 55 55 56 54 50 53 50 51 51 51 53 53 53 53 53 52 52 55 54 52 50 50 52 52 53 54 52 52 54 54 57 59 59 56 56 57 57 57 57 56 55 53 54 56 57 55 55 57 59 57 58 57 57 57 59 60 60 58 59
38 43 39 41 39 33 39 44 45 45 47 47 47 47 47 49 49 48 47 47 48 49 50 50 50 50 50 51 53 52 52 53 54 52 51 52 52 52 52 53 53 53 53 54 54 54 53 53 53 53 54 54 55 55 55 56 56 58 57 56 55 55 58 58 57 55 55 53 54 54 54 54 56 56 55 57 57 54 54 55 56 57 57 57 58 57
44 45 37 42 38 40 42 44 45 45 45 46 47 48 49 50 50 49 49 47 46 46 47 49 50 50 51 52 53 54 54 54 52 53 53 53 53 54 54 54 54 54 54 54 55 55 54 54 54 54 54 55 55 55 55 55 55 56 57 57 58 58 58 58 58 57 55 54 54 55 57 55 55 54 56 58 59 58 60 56 54 57 58 60 60 59
43 40 43 40 36 36 38 42 46 40 41 44 47 48 49 50 49 49 48 48 48 48 47 46 47 50 51 54 55 53 52 56 54 53 51 52 53 53 53 54 54 54 53 54 54 55 55 56 55 55 55 55 56 56 56 56 56 56 54 57 57 57 57 57 57 57 56 56 55 56 55 56 55 57 58 57 56 58 59 58 49 55 58 56 58 49
45 45 42 38 37 38 45 46 49 47 47 47 48 49 50 51 50 48 48 48 49 49 49 47 46 48 48 48 49 51 53 54 52 50 50 49 51 52 52 53 53 54 54 53 53 54 55 55 55 56 56 55 56 55 55 55 54 55 55 56 56 56 57 56 55 55 54 55 54 56 57 57 57 59 60 59 59 58 58 56 57 46 46 54 55 49